• Join FlightAware (Why Join?)
  • Login
  • US Flag 
06:43PM EST


 

Airport Tracker/Info


-or-


 

Live Flight TrackerFlight Track Log ✈ SWA1017 ✈ 23-Apr-2013 ✈ KHRL - KAUS

Flight Track Log - Related Links

Times and Time Zones

All times are in EDT time to prevent confusion due to time zone crossing. See the SWA1017 flight status page for this flight to view local times or setup timezone preferences in your user account.

Time Position Orientation Groundspeed Altitude Reporting Facility
EDT Latitude Longitude Course Direction KTS MPH feet Rate Location/Type
02:58PM 26.2175 -97.6475 78° East 132 152 800  Level Houston Center
02:59PM 26.2228 -97.6189 78° East 170 196 2,600 3,191 Climbing Houston Center
02:59PM 26.2706 -97.5725 41° Northeast 238 274 5,800 3,681 Climbing Houston Center
03:01PM 26.3358 -97.5006 45° Northeast 303 349 9,900 3,048 Climbing Houston Center
03:02PM 26.4278 -97.4858 North 354 407 12,100 3,072 Climbing Houston Center
03:03PM 26.5458 -97.4822 North 390 449 16,300 3,696 Climbing Houston Center
03:04PM 26.6578 -97.4792 North 402 463 19,800 3,145 Climbing Houston Center
03:05PM 26.7864 -97.4761 North 427 491 22,800 2,903 Climbing Houston Center
03:06PM 26.9097 -97.4733 North 441 507 25,800 2,516 Climbing Houston Center
03:07PM 27.0325 -97.4944 351° North 452 520 28,000 1,984 Climbing Houston Center
03:08PM 27.1558 -97.5392 342° North 474 545 29,900 2,081 Climbing Houston Center
03:09PM 27.2778 -97.5819 343° North 460 529 32,300 2,112 Climbing Houston Center
03:10PM 27.3978 -97.6253 342° North 455 524 34,300 1,296 Climbing Houston Center
03:11PM 27.5186 -97.6694 342° North 457 526 35,000 339 Climbing Houston Center
03:12PM 27.6642 -97.7225 342° North 459 528 35,000  Level Houston Center
03:13PM 27.7842 -97.7664 342° North 457 526 35,000  Level Houston Center
03:14PM 27.9033 -97.8106 342° North 454 522 35,000  Level Houston Center
03:15PM 28.0206 -97.8539 342° North 447 514 35,000  Level Houston Center
03:16PM 28.1378 -97.8961 342° North 446 513 35,000  Level Houston Center
03:17PM 28.2736 -97.9464 342° North 439 505 35,000  Level Houston Center
03:18PM 28.3875 -97.9889 342° North 433 498 35,000  Level Houston Center
03:19PM 28.5014 -98.0319 342° North 431 496 35,000  Level Houston Center
03:20PM 28.6156 -98.0739 342° North 431 496 35,000  Level Houston Center
03:21PM 28.7453 -98.1228 342° North 429 494 35,000  Level Houston Center
03:22PM 28.8583 -98.1656 342° North 428 493 35,000 -532 Level Houston Center
03:23PM 28.9819 -98.2125 342° North 434 499 33,900 -968 Descending Houston Center
03:24PM 29.1000 -98.2553 342° North 444 511 33,000 -960 Descending Houston Center
03:25PM 29.2283 -98.3039 342° North 450 518 31,900 -1,056 Descending Houston Center
03:26PM 29.3453 -98.3475 342° North 443 510 30,800 -1,258 Descending Houston Center
03:27PM 29.4672 -98.3933 342° North 431 496 29,300 -1,742 Descending Houston Center
03:28PM 29.5625 -98.4308 341° North 428 493 27,200 -2,177 Descending Houston Center
03:30PM 29.6936 -98.4272 North 421 484 24,800 -2,613 Descending Houston Center
03:31PM 29.7947 -98.3539 32° Northeast 430 495 21,800 -2,710 Descending Houston Center
03:32PM 29.9014 -98.2764 32° Northeast 422 486 19,200 -2,400 Descending Houston Center
03:33PM 29.9961 -98.2075 32° Northeast 401 461 16,800 -2,352 Descending Houston Center
03:34PM 30.0961 -98.1356 32° Northeast 393 452 14,300 -2,177 Descending Houston Center
03:35PM 30.1514 -98.0383 57° Northeast 367 422 12,300 -2,081 Descending Houston Center
03:36PM 30.1983 -97.9297 63° Northeast 352 405 10,000 -1,790 Descending Houston Center
03:37PM 30.1969 -97.8328 91° East 306 352 8,600 -1,548 Descending Houston Center
03:38PM 30.1317 -97.7944 153° Southeast 267 307 6,800 -1,839 Descending Houston Center
03:39PM 30.0553 -97.7656 162° South 266 306 4,800 -1,440 Descending Houston Center
03:40PM 30.0144 -97.7014 126° Southeast 241 277 3,800 -1,008 Descending Houston Center
03:41PM 30.0561 -97.6786 25° Northeast 187 215 2,700 -919 Descending Houston Center
03:42PM 30.1086 -97.6750 North 171 197 1,900 -581 Descending Houston Center
03:43PM 30.1536 -97.6764 358° North 165 190 1,500 -387 Descending Houston Center
03:45PM 30.1945 -97.6699 31° Northeast  Level Estimated
03:52PM 30.1945 -97.6699 221° Southwest  Level Estimated